Weather History for KSLN - May, 2013

Change the Weather History Date:

Saturday, May 4, 2013

  Actual Average Record
Temperature  
Mean Temperature 46 °F 61 °F  
Max Temperature 49 °F 73 °F 96 °F (2014)
Min Temperature 42 °F 50 °F 24 °F (1907)
Degree Days  
Heating Degree Days 19 5  
Month to date heating degree days 72 23  
Since 1 July heating degree days 4862 4791  
Cooling Degree Days 0 2  
Month to date cooling degree days 0 5  
Year to date cooling degree days 15 30  
Moisture  
Dew Point 34 °F    
Average Humidity 63    
Maximum Humidity 76    
Minimum Humidity 49    
Precipitation  
Precipitation T in 0.13 in 1.87 in (2015)
Month to date precipitation 1.45 0.50  
Year to date precipitation 7.67 7.74  
Sea Level Pressure  
Sea Level Pressure 30.04 in    
Wind  
Wind Speed 19 mph (North)    
Max Wind Speed 29 mph    
Max Gust Speed 35 mph    
Visibility 10 miles    
Events Rain    
T = Trace of Precipitation, MM = Missing Value Source: NWS Daily Summary

Daily Weather History Graph

Daily Weather History Graph

Search for Another Location

Airport or City:

Trip Planner

Search our weather history database for the weather conditions in past years. The results will help you decide how hot, cold, wet, or windy it might be!

Date:

Astronomy

May. 04, 2013 Rise Set
Actual Time 6:29 AM CDT 8:26 PM CDT
Civil Twilight 6:00 AM CDT 8:55 PM CDT
Nautical Twilight 5:24 AM CDT 9:30 PM CDT
Astronomical Twilight 4:46 AM CDT 10:08 PM CDT
Moon 3:25 AM CDT 3:28 PM CDT
Length of Visible Light 14h 55m
Length of Day
13h 57m
Waning Crescent, 27% of the Moon is Illuminated
May 4
Waning Crescent
May 9
New
May 17
First Quarter
May 24
Full
May 31
Last Quarter

Hourly Weather History & Observations

Time (CDT) Temp. Windchill Dew Point Humidity Pressure Visibility Wind Dir Wind Speed Gust Speed Precip Events Conditions
12:53 AM 43.0 °F 37.7 °F 30.9 °F 62% 30.02 in 10.0 mi NW 9.2 mph - N/A   Partly Cloudy
1:53 AM 43.0 °F 37.2 °F 30.9 °F 62% 30.00 in 10.0 mi NNW 10.4 mph - N/A   Scattered Clouds
2:53 AM 43.0 °F 37.2 °F 30.0 °F 60% 29.99 in 10.0 mi NW 10.4 mph - N/A   Mostly Cloudy
3:53 AM 43.0 °F 35.7 °F 30.0 °F 60% 29.98 in 10.0 mi NW 15.0 mph - N/A   Overcast
4:53 AM 44.1 °F 35.0 °F 27.0 °F 51% 29.97 in 10.0 mi NNW 24.2 mph 34.5 mph N/A   Overcast
5:53 AM 43.0 °F 32.9 °F 27.0 °F 53% 29.97 in 10.0 mi NNW 27.6 mph 33.4 mph N/A   Overcast
6:53 AM 42.1 °F 32.6 °F 27.0 °F 55% 29.98 in 10.0 mi NNW 23.0 mph 32.2 mph N/A   Overcast
7:53 AM 43.0 °F 33.3 °F 28.0 °F 56% 29.98 in 10.0 mi NNW 25.3 mph 31.1 mph N/A   Overcast
8:53 AM 43.0 °F 33.5 °F 28.9 °F 58% 30.00 in 10.0 mi North 24.2 mph 31.1 mph N/A   Overcast
9:53 AM 44.1 °F 34.6 °F 30.0 °F 58% 30.00 in 10.0 mi North 26.5 mph 31.1 mph N/A   Overcast
10:53 AM 45.0 °F 36.2 °F 32.0 °F 60% 30.02 in 10.0 mi North 24.2 mph 29.9 mph N/A   Overcast
11:27 AM 46.4 °F 38.7 °F 33.8 °F 62% 30.02 in 10.0 mi North 20.7 mph 29.9 mph N/A   Overcast
11:53 AM 44.1 °F 35.7 °F 35.1 °F 71% 30.04 in 8.0 mi North 20.7 mph 29.9 mph 0.00 in Rain Light Rain
12:53 PM 46.0 °F 38.3 °F 35.1 °F 66% 30.04 in 10.0 mi North 20.7 mph 26.5 mph 0.00 in   Overcast
1:53 PM 46.9 °F - 35.1 °F 63% 30.04 in 10.0 mi North 18.4 mph - N/A   Overcast
2:53 PM 46.9 °F - 36.0 °F 66% 30.05 in 10.0 mi North 19.6 mph - N/A   Overcast
3:33 PM 48.2 °F - 37.4 °F 66% 30.04 in 10.0 mi North 18.4 mph 24.2 mph N/A   Overcast
3:53 PM 48.0 °F - 36.0 °F 63% 30.04 in 10.0 mi North 20.7 mph 29.9 mph N/A   Overcast
4:53 PM 48.0 °F - 37.9 °F 68% 30.05 in 10.0 mi North 21.9 mph - N/A   Overcast
5:53 PM 48.0 °F - 37.9 °F 68% 30.07 in 10.0 mi North 21.9 mph - N/A   Overcast
6:53 PM 48.0 °F - 37.9 °F 68% 30.08 in 10.0 mi North 13.8 mph - N/A   Overcast
7:53 PM 46.9 °F - 37.9 °F 71% 30.10 in 10.0 mi North 18.4 mph - N/A   Overcast
8:53 PM 46.0 °F 39.9 °F 37.9 °F 73% 30.12 in 10.0 mi North 13.8 mph - N/A   Overcast
9:53 PM 46.0 °F 39.3 °F 37.9 °F 73% 30.14 in 10.0 mi North 16.1 mph 21.9 mph N/A   Overcast
10:53 PM 45.0 °F 38.2 °F 37.9 °F 76% 30.14 in 10.0 mi North 15.0 mph - N/A   Overcast
11:15 PM 44.6 °F 37.2 °F 37.4 °F 76% 30.13 in 10.0 mi North 17.3 mph - N/A   Overcast
11:53 PM 44.1 °F 37.4 °F 37.9 °F 79% 30.15 in 10.0 mi North 13.8 mph - N/A   Overcast